Location: L�gaud
(45.7115°N, 1.7775°E)
Time: 20:42:49
(UTC+00:00)

Cosmos 2333 Rocket - Pass Details

Date: 03 March 2021
Orbit: 837 x 864 km, 70.8° (Epoch: 13 April)

Event Time Altitude Azimuth Distance (km) Brightness Sun altitude
Rises 18:46:36 0° 170° (S) 3,385 5.2 -12.0°
Reaches altitude 10° 18:49:22 10° 158° (SSE) 2,459 4.4 -12.4°
Maximum altitude 18:53:59 27° 103° (ESE) 1,590 3.1 -13.3°
Drops below altitude 10° 18:58:39 10° 48° (NE) 2,488 4.3 -14.1°
Sets 19:01:28 0° 36° (NE) 3,434 5.1 -14.6°
